Dewpoint
34 38 45 48 61 63 64 64 63 64 63 62 62 62 61 61 61 61 59 56 56 51 48 44 42 41 40 39 39 39 38 39 38 35 35 35 34 35 36 36 37 38 39
32 34 39 45 51 62 63 63 64 63 63 63 62 62 61 61 61 60 59 56 54 52 49 45 42 40 39 38 38 37 38 38 38 34 34 31 32 32 31 32 35 35 39
33 34 35 40 44 52 59 63 63 63 63 63 63 62 61 55 57 57 57 56 54 51 49 44 41 40 39 38 38 37 37 37 38 35 33 32 29 32 33 29 32 33 37
33 34 36 37 40 47 49 61 63 63 63 63 63 60 59 56 56 56 56 56 54 52 48 44 41 40 39 38 38 38 37 37 37 37 37 37 35 30 30 30 30 31 33
33 34 36 37 41 46 48 47 55 62 63 63 62 60 59 59 56 54 53 54 52 51 49 46 42 40 40 40 39 38 36 37 37 35 34 34 33 34 31 28 28 30 30
33 33 36 39 41 44 47 48 47 48 58 62 62 60 58 58 54 51 50 51 51 50 48 45 43 43 41 40 39 38 36 36 37 35 34 33 31 30 31 29 28 27 29
28 27 32 37 41 43 46 47 47 48 50 59 60 59 57 57 55 51 50 50 50 49 47 46 44 43 42 41 40 39 37 35 35 34 33 33 29 30 30 30 28 27 29
27 24 27 37 41 45 46 47 47 48 50 50 55 55 55 55 54 51 51 50 49 49 47 45 43 43 43 42 41 39 37 36 34 33 31 31 30 29 28 30 27 26 28
25 23 23 30 36 41 46 47 47 48 50 51 50 53 53 52 51 51 51 50 50 49 47 45 43 42 42 40 38 37 35 35 34 32 30 29 29 29 30 30 29 29 28
31 29 27 26 32 38 42 45 46 46 48 49 52 50 52 51 50 50 49 49 49 48 46 44 42 41 40 38 37 35 34 33 33 32 30 31 33 33 33 31 30 30 28
34 33 31 29 29 38 41 43 45 44 44 46 49 51 52 51 50 49 49 48 47 45 45 43 41 40 39 38 37 36 36 34 36 37 37 36 35 34 30 27 27 27 27
32 35 33 32 30 30 34 38 44 45 45 44 47 48 51 51 50 48 47 48 47 46 45 43 41 40 40 40 39 39 39 38 37 36 36 34 33 31 29 28 27 27 27
29 30 31 31 29 30 32 32 37 43 45 45 45 48 47 48 49 49 48 47 46 45 45 43 41 41 40 40 40 40 38 38 37 36 35 33 32 31 30 30 29 28 27
22 26 27 28 29 31 33 34 35 39 42 44 45 46 46 48 50 50 48 47 46 45 44 43 42 41 41 40 40 39 38 37 37 36 35 33 33 32 31 31 30 29 25
28 28 28 27 28 31 33 33 35 36 40 42 43 43 44 47 49 48 47 46 45 44 44 43 42 41 40 39 39 38 37 36 35 34 33 33 34 34 32 30 28 26 22
20 19 19 20 20 26 29 32 34 35 35 37 41 43 43 44 46 47 45 44 44 43 43 42 41 40 39 38 37 36 35 34 33 31 31 33 34 30 28 28 27 25 22
16 15 15 16 17 17 23 30 32 36 35 35 39 40 41 42 44 45 44 43 42 42 42 40 39 38 37 36 35 34 34 33 32 31 29 28 29 28 27 26 24 23 24
14 14 15 16 16 16 21 25 30 35 35 36 38 39 39 39 43 43 42 41 40 40 39 38 37 36 35 35 34 34 33 31 30 29 28 27 26 26 26 25 24 23 21
17 17 16 16 16 15 18 23 26 34 37 37 38 39 39 38 41 42 40 39 38 38 37 36 35 33 34 34 33 32 30 28 27 28 27 26 26 27 27 24 22 22 23
20 19 19 19 18 18 18 19 21 33 36 37 37 38 37 37 38 41 38 37 37 37 35 34 32 32 33 33 32 30 29 26 26 27 28 27 26 27 26 23 21 19 19
18 20 21 20 20 20 19 18 25 33 36 37 36 35 34 35 36 38 37 36 36 34 33 32 31 32 32 32 32 30 29 27 26 26 26 27 28 27 25 21 18 16 16
21 22 21 21 21 22 20 24 29 34 36 34 34 34 34 35 36 38 36 35 34 32 31 30 30 31 31 31 31 31 28 27 26 25 26 27 28 26 23 18 16 17 14
22 22 22 22 23 24 33 34 34 35 34 33 31 32 33 34 34 35 34 33 33 31 30 29 28 28 30 30 31 30 29 28 27 26 26 27 27 26 19 13 13 15 12
23 23 23 24 25 28 32 35 35 35 32 31 32 32 32 32 32 33 33 32 31 30 29 27 27 27 28 28 28 29 28 28 27 27 27 27 26 20 18 16 14 14 12
28 27 27 28 29 32 33 34 34 32 31 32 31 31 31 31 30 31 31 30 30 29 27 27 27 26 26 27 28 26 26 26 26 25 24 22 20 17 14 12 14 15 13
30 30 30 30 32 33 34 33 34 33 32 30 30 30 30 29 29 28 28 30 30 31 30 30 29 29 28 27 27 27 27 26 25 22 20 18 18 16 13 10 10 12 14
Wind_Speed
16 22 27 26 14 18 24 31 30 30 26 28 29 27 31 25 22 21 23 24 22 23 22 16 17 18 20 22 20 12 20 14 13 16 11 6 4 7 10 12 13 13 12
22 25 26 28 27 14 21 26 29 29 29 28 30 24 23 20 21 17 21 24 27 26 25 24 21 20 18 20 21 21 12 8 18 11 9 7 3 3 6 8 13 14 12
20 23 24 24 26 28 18 25 28 28 29 27 17 11 13 6 12 18 21 22 25 26 27 22 21 23 22 24 25 23 22 16 16 21 8 7 8 8 4 9 9 14 13
16 17 20 23 24 23 29 20 23 24 24 26 23 28 30 25 25 22 20 21 23 23 24 26 24 23 20 21 22 20 22 18 25 13 2 3 10 7 6 4 8 11 14
12 15 16 14 15 18 20 25 25 19 22 22 26 26 28 26 18 18 21 22 23 26 25 23 24 23 20 20 21 20 22 19 20 17 7 6 5 7 5 7 9 5 6
11 9 8 9 14 17 17 19 25 30 23 22 23 25 29 25 17 19 23 22 22 22 22 22 23 23 22 22 21 19 21 20 16 12 13 11 7 9 5 4 8 12 7
13 14 15 13 10 13 14 16 20 24 37 18 16 21 24 27 32 32 28 27 27 23 25 24 22 20 17 17 19 19 18 19 18 19 13 8 7 7 6 7 7 6 4
17 18 15 14 11 8 8 10 17 21 23 33 23 14 13 10 8 14 19 22 24 28 27 24 21 19 19 17 17 16 15 16 14 14 10 10 7 7 7 9 16 7 3
17 21 18 15 12 7 6 8 10 14 15 13 20 21 11 8 6 6 10 6 4 5 15 20 20 19 19 18 18 19 19 19 16 14 16 16 10 12 8 10 10 12 9
22 23 20 20 16 11 4 4 6 9 10 8 5 11 10 6 3 5 7 8 5 11 16 18 20 19 20 21 21 20 18 21 16 17 19 18 10 12 8 5 9 9 11
28 22 23 19 20 15 14 11 5 1 2 0 6 8 6 3 8 7 3 2 4 6 9 13 22 23 23 21 23 22 23 25 21 16 15 13 12 10 8 8 7 6 6
27 26 24 17 16 20 20 17 13 12 10 8 7 7 5 5 6 4 10 14 10 9 11 10 14 21 23 22 25 24 21 23 21 19 17 17 13 14 13 11 8 9 6
24 21 16 15 11 12 14 15 17 17 17 13 12 12 11 12 14 16 17 17 18 19 17 17 18 20 24 24 22 23 21 21 23 22 20 18 19 16 12 11 12 11 8
10 13 13 9 8 7 9 11 8 9 14 18 19 19 16 17 15 13 17 18 18 19 18 19 20 20 21 21 20 20 20 18 17 17 17 18 18 18 17 13 13 11 12
10 8 8 11 12 10 11 11 10 10 7 2 10 16 14 12 10 11 12 13 18 19 20 18 16 17 18 18 20 18 19 19 17 16 14 12 12 14 15 14 13 13 11
10 10 10 10 11 11 13 12 9 6 7 8 5 7 9 11 11 12 13 15 15 16 17 18 19 19 16 19 22 21 20 19 20 18 15 14 15 16 16 15 11 12 14
8 11 12 13 15 17 15 15 15 11 8 2 0 2 6 8 10 12 13 15 17 16 19 18 19 20 17 26 26 26 20 21 20 20 21 18 16 19 18 18 16 13 10
11 12 15 17 18 17 18 16 16 16 12 9 7 7 7 11 9 12 16 14 16 18 17 17 19 19 14 26 26 24 20 18 19 20 21 21 16 15 17 16 14 11 10
19 19 19 19 19 20 22 19 19 15 12 11 7 6 6 9 13 14 17 16 18 17 20 19 20 21 21 29 28 23 19 19 18 17 17 18 17 19 18 17 16 12 8
20 23 23 19 16 21 21 20 21 16 16 13 8 6 8 10 14 15 16 14 16 14 13 17 15 18 24 29 28 25 20 21 19 16 15 19 18 20 18 14 15 14 11
26 24 21 20 21 20 20 20 21 20 16 7 7 7 7 9 11 12 11 15 14 15 15 16 17 20 24 25 29 28 22 21 20 17 15 13 21 20 17 14 12 11 13
23 22 20 21 21 22 19 23 22 13 4 5 6 7 8 8 6 9 10 13 15 17 17 18 16 16 22 27 25 24 22 23 22 18 15 16 22 19 16 13 12 14 11
22 21 20 21 20 20 14 18 14 6 8 7 8 7 5 5 4 11 13 14 15 16 17 17 17 20 17 21 25 24 25 22 19 17 18 21 21 19 15 14 14 14 10
22 22 20 19 22 19 16 15 6 7 8 7 8 5 4 3 2 6 9 11 13 14 16 18 20 18 17 22 20 20 20 22 19 22 20 17 15 14 14 12 10 10 10
23 20 21 19 21 16 14 8 6 5 7 7 6 5 4 5 6 5 6 10 10 17 21 18 22 24 21 19 22 22 19 18 19 19 16 16 15 14 12 9 9 9 9
19 18 21 22 17 8 10 10 11 10 8 8 8 8 8 8 8 11 12 11 14 14 15 18 19 16 21 29 28 25 24 24 24 15 17 14 15 15 15 12 9 7 10
Wind_Direction
12 17 10 355 276 208 206 208 212 209 189 196 198 204 207 203 202 200 187 178 190 187 182 198 180 179 178 178 174 158 160 151 134 119 104 82 104 165 168 161 155 152 149
15 13 8 15 3 254 217 219 217 209 203 204 206 210 210 217 211 198 188 188 184 188 190 191 181 185 176 175 174 172 160 149 166 151 132 150 167 179 185 174 172 167 159
22 20 14 10 11 6 309 229 223 218 214 209 212 213 183 163 195 202 196 193 189 188 189 190 181 181 179 183 180 174 175 164 191 170 148 150 200 146 163 194 186 173 173
12 16 21 21 10 5 5 312 240 229 223 210 198 197 204 203 206 202 203 193 187 189 184 181 179 184 184 184 185 179 177 164 184 192 141 142 139 165 170 193 186 184 182
11 12 13 7 20 20 12 14 4 248 229 216 213 203 206 216 209 197 189 187 185 181 184 185 182 182 183 183 179 184 180 176 181 183 162 141 109 123 143 168 180 177 198
347 352 7 15 10 7 23 35 10 8 324 221 224 209 214 205 192 194 186 185 185 184 182 182 181 184 185 180 177 181 178 179 178 177 181 168 160 168 147 123 157 172 184
329 335 340 337 359 39 29 15 41 18 7 311 245 217 214 214 199 192 196 187 180 184 186 183 181 181 179 174 168 173 178 173 177 181 174 169 164 145 130 117 140 160 127
332 324 321 326 333 3 21 36 45 36 30 17 334 333 313 291 283 210 206 199 198 190 182 179 170 163 164 170 164 161 158 161 163 165 159 148 144 144 150 145 144 132 129
326 316 314 309 325 333 357 22 43 40 36 37 24 339 10 341 16 358 344 288 175 212 167 164 158 153 152 152 146 144 142 135 134 131 130 124 118 105 101 135 140 140 164
311 307 309 307 308 302 313 18 47 63 49 28 10 316 339 359 49 209 192 224 227 198 164 156 147 144 142 140 136 135 130 129 126 130 137 125 121 106 112 141 188 178 167
304 295 295 295 304 302 295 281 277 168 147 258 51 16 323 12 228 199 159 255 178 154 163 166 149 145 144 141 135 136 138 135 143 146 143 149 149 157 151 161 155 134 149
293 287 289 299 305 310 305 290 251 237 226 238 215 176 237 223 224 189 187 187 192 156 164 159 153 149 151 153 153 159 166 158 163 164 160 168 153 156 163 156 162 174 169
299 298 301 299 300 310 322 303 284 245 239 233 251 242 206 229 220 205 198 186 181 171 168 166 168 168 169 170 170 169 167 165 165 165 166 164 163 165 154 165 167 168 151
310 331 327 316 318 309 337 6 358 284 244 226 232 243 249 239 238 216 196 194 183 172 174 181 182 180 172 173 171 166 165 166 162 164 170 170 168 163 167 171 175 160 145
343 5 354 342 334 328 334 346 344 16 42 230 255 260 272 271 266 245 206 186 180 188 182 176 181 174 175 173 167 164 161 151 144 142 139 145 158 169 170 163 160 155 148
312 318 323 323 330 324 316 318 314 332 18 29 11 296 261 256 260 248 219 191 192 183 176 177 168 168 176 177 164 157 156 150 146 142 132 136 145 132 118 117 124 139 140
303 308 309 313 312 318 312 310 314 308 306 312 319 48 353 300 261 245 217 204 189 178 177 171 162 174 176 168 162 151 151 150 148 144 136 125 124 119 117 110 101 96 101
297 295 299 301 303 306 305 309 306 302 302 291 307 339 331 319 285 246 229 202 181 174 176 171 166 163 167 161 156 144 142 139 140 143 143 136 135 130 125 120 114 111 113
284 282 282 283 288 297 299 298 299 291 280 274 280 294 315 296 284 230 218 190 173 177 176 172 162 159 157 158 152 138 133 132 133 135 135 134 136 144 139 130 132 126 110
275 277 273 275 282 293 295 294 293 274 260 256 262 286 298 294 288 254 212 189 182 184 162 154 161 159 158 157 152 137 137 137 137 134 136 141 140 150 145 144 150 153 160
278 276 273 274 282 288 287 284 286 265 249 229 254 277 279 288 282 245 200 180 166 153 153 150 148 153 155 158 148 142 147 147 145 143 141 144 149 148 148 151 158 170 152
275 271 269 276 277 284 287 286 276 259 219 241 267 280 296 305 280 226 191 173 159 157 151 147 145 153 155 155 149 147 144 149 143 145 140 145 154 151 151 144 143 140 139
272 273 267 270 278 280 279 274 266 207 200 222 247 257 285 297 233 201 178 168 159 157 155 154 151 149 156 150 146 141 141 135 130 132 139 150 153 151 150 148 148 140 145
270 267 267 268 272 266 262 250 225 208 214 224 249 251 229 243 171 158 164 160 152 151 153 148 146 145 144 141 138 140 134 128 126 134 143 154 146 146 146 144 155 153 158
274 263 266 268 270 265 264 223 187 197 234 231 217 216 188 169 136 118 153 153 162 163 156 155 148 145 151 154 144 143 141 136 140 134 134 134 144 150 160 162 166 162 169
282 272 274 276 264 250 251 219 187 179 209 215 190 182 155 139 129 117 96 98 124 133 141 147 145 139 139 145 142 141 144 143 137 139 149 150 160 172 180 186 181 186 202